Temperature
18 17 17 17 18 18 18 18 17 17 18 17 17 16 16 17 17 17 17 18 18 19 19 19 19 19 19 18 18 18 18 17 17 17 17 16 16 16 15 15 15 15 15 15
17 17 18 18 18 18 18 17 17 17 18 17 16 16 16 16 16 17 17 17 18 18 19 19 19 19 19 18 18 18 18 17 17 17 16 16 16 16 15 15 15 15 15 15
18 18 19 19 18 18 18 17 17 17 17 17 17 17 16 16 17 17 17 17 18 18 19 19 19 19 19 18 18 18 18 17 17 17 16 16 16 16 15 15 15 15 15 15
18 18 19 19 18 18 18 18 18 17 17 16 17 16 17 16 16 16 16 17 18 18 18 18 18 19 18 18 18 18 17 17 17 16 16 16 16 16 15 15 15 15 15 15
18 18 19 19 19 19 18 18 17 17 16 16 16 16 16 16 16 16 16 17 17 18 18 18 18 18 18 18 18 17 17 17 17 16 16 16 16 15 15 15 15 15 15 15
18 18 19 19 18 18 18 17 17 16 16 17 17 16 17 15 16 16 16 16 17 18 18 18 18 18 18 18 17 17 17 17 16 16 16 16 15 15 15 15 15 15 15 15
18 18 19 19 18 18 17 16 16 17 16 16 16 16 16 17 16 16 16 17 17 18 18 18 18 18 18 17 17 17 17 17 16 16 16 16 15 15 15 15 15 15 15 14
18 18 18 18 18 17 17 17 16 16 16 16 17 16 17 17 17 17 17 17 17 17 17 18 18 18 17 17 17 17 16 16 16 16 16 15 15 15 15 15 14 14 14 14
17 18 19 19 18 18 17 16 16 16 16 16 16 16 17 16 16 16 16 17 17 17 17 17 17 17 17 17 17 16 16 16 16 15 15 15 15 15 15 14 14 14 14 14
18 18 18 18 18 17 17 16 15 16 16 16 17 17 16 16 16 15 15 16 17 17 17 17 17 17 17 17 16 16 16 16 15 15 15 15 15 14 14 14 14 14 14 14
18 18 18 18 18 18 17 16 15 14 15 16 16 17 17 17 16 15 15 16 17 17 17 17 17 17 16 16 16 16 15 15 15 15 15 14 14 14 14 14 14 14 14 13
17 16 17 18 19 18 18 17 16 17 16 15 15 16 18 16 16 16 16 17 17 17 17 17 17 16 16 16 16 16 15 15 15 15 14 14 14 14 14 14 14 13 13 13
17 16 17 18 18 18 18 17 16 15 14 14 15 17 16 16 16 17 16 17 17 17 17 17 17 16 16 16 16 15 15 15 15 14 14 14 14 14 14 14 13 13 13 13
17 16 17 18 18 18 18 18 16 16 15 15 15 17 17 16 15 16 16 17 17 17 17 17 17 16 16 16 16 15 15 15 15 14 14 14 14 14 14 13 13 13 13 13
18 18 18 18 19 19 19 19 17 17 16 16 17 16 17 16 15 16 16 17 16 17 17 17 17 16 16 16 16 15 15 15 15 14 14 14 14 14 13 13 13 13 13 12
16 18 18 19 19 19 19 19 18 17 17 17 17 17 17 17 16 16 16 16 16 17 17 17 17 16 16 16 16 15 15 15 14 14 14 14 14 13 13 13 13 12 12 12
15 17 17 18 18 19 19 19 18 18 17 17 17 18 15 15 15 16 16 17 17 18 18 17 17 17 16 16 16 15 15 15 14 14 14 14 13 13 13 12 12 12 12 12
15 15 15 16 19 19 19 19 19 18 18 17 17 17 15 17 18 18 18 18 18 18 18 18 17 17 16 16 16 15 15 14 14 14 14 13 13 13 13 12 12 12 12 12
14 15 14 15 17 17 18 19 18 18 18 17 17 16 16 17 16 16 18 19 19 19 19 18 17 17 16 16 15 15 15 14 14 14 13 13 13 13 12 12 12 12 11 11
13 14 14 14 17 18 19 19 19 19 19 18 17 16 15 16 15 16 20 19 19 18 18 18 17 16 16 16 15 15 14 14 14 14 13 13 13 12 12 12 12 11 11 11
15 14 14 14 16 16 17 18 19 19 19 20 19 18 16 17 19 20 20 19 19 18 18 17 17 16 16 16 15 15 14 14 14 13 13 13 12 12 12 12 11 11 11 11
15 14 13 13 15 17 18 17 18 19 20 21 20 20 19 20 20 20 20 19 19 18 17 17 16 16 16 15 15 15 14 14 13 13 13 12 12 12 12 11 11 11 11 11
13 14 13 14 16 17 18 19 20 20 21 21 21 21 20 19 20 20 20 19 18 18 17 17 16 16 15 15 15 14 14 13 13 13 12 12 12 11 11 11 11 11 10 10
13 12 12 13 14 16 18 19 20 20 21 21 21 21 20 20 20 19 19 19 18 18 17 17 16 16 15 15 14 14 13 13 13 12 12 12 11 11 11 11 10 10 10 10
14 12 13 13 14 16 19 20 20 21 21 21 21 21 20 20 19 19 19 18 18 17 17 16 16 16 15 15 14 14 13 13 12 12 12 11 11 11 10 10 10 10 10 9
12 13 14 15 16 15 19 20 20 20 20 20 20 20 19 19 19 19 18 18 17 17 16 16 16 15 15 14 14 13 13 12 12 12 11 11 11 10 10 10 10 9 9 9
Wind_Speed
3 5 3 3 4 5 6 5 3 2 2 5 7 5 3 2 3 3 2 2 2 1 0 1 2 3 4 4 4 3 3 3 3 2 2 2 2 2 3 3 5 6 6 5
6 2 2 3 5 7 6 6 3 4 4 4 6 5 3 3 1 1 2 2 2 2 2 3 3 4 4 3 3 3 3 2 2 2 2 1 1 1 1 3 5 7 7 6
4 2 2 4 5 5 3 5 5 5 3 4 4 3 3 2 2 2 1 1 1 3 3 3 3 3 3 3 3 3 3 3 3 3 3 3 3 3 4 4 4 5 7 7
1 1 2 4 3 5 1 3 6 6 5 2 2 1 3 1 2 1 1 0 1 1 2 2 3 3 2 2 3 3 4 4 3 3 4 4 3 2 2 2 3 4 7 7
0 0 3 3 3 5 4 5 6 4 5 4 3 3 4 1 3 4 3 3 2 2 3 3 3 3 3 3 4 4 5 5 4 4 4 5 3 1 1 2 4 5 5 7
1 0 1 2 4 5 8 8 7 5 4 2 1 3 5 5 6 5 4 4 3 3 3 3 3 4 4 4 4 4 5 5 4 4 4 4 4 3 3 3 4 4 4 4
3 2 1 3 6 5 5 7 3 2 2 2 1 2 7 6 5 6 7 6 4 3 4 4 5 4 4 4 4 4 5 4 3 4 4 3 3 3 3 2 2 3 3 3
3 0 1 1 4 6 3 6 6 5 4 2 1 4 6 3 3 4 5 5 5 4 4 5 5 4 4 4 4 4 4 3 3 3 3 3 3 2 2 2 1 1 1 2
5 2 0 2 3 7 5 3 5 6 3 1 4 5 5 1 2 4 5 6 6 5 5 5 5 4 4 4 4 4 4 3 3 3 3 3 3 2 2 2 2 2 2 2
7 4 1 2 5 4 5 7 5 5 5 2 3 4 5 6 7 7 7 8 7 6 5 5 4 4 4 4 3 3 4 3 2 2 2 2 2 2 2 2 3 2 2 3
4 5 1 2 5 6 5 4 4 4 4 5 3 7 6 10 11 12 11 9 9 8 7 6 4 4 4 3 4 3 3 3 2 2 2 2 2 2 3 2 2 2 2 3
4 5 2 4 3 5 6 7 7 5 4 4 4 7 4 6 9 10 10 8 8 7 6 5 5 4 4 4 3 3 3 3 2 2 2 2 2 2 2 1 1 2 2 2
7 6 3 3 3 1 3 5 5 5 5 5 5 6 3 1 5 7 8 8 7 7 6 5 5 5 5 4 4 3 3 3 2 3 3 2 1 2 1 0 1 1 2 2
6 5 6 8 7 6 5 6 7 7 5 5 8 8 5 4 7 8 8 9 8 8 8 7 6 5 5 4 4 3 3 3 3 3 3 2 1 1 1 0 1 1 1 1
5 4 6 6 5 5 6 7 9 8 8 9 9 9 10 10 12 10 9 9 8 8 8 8 7 6 5 4 4 3 3 2 3 3 3 2 1 0 0 1 1 1 1 1
3 4 2 2 3 4 4 6 9 8 6 7 5 8 8 5 6 8 10 11 11 10 10 9 8 7 7 6 5 4 3 2 3 3 2 1 1 1 0 0 1 1 2 2
4 5 3 3 3 2 5 8 10 7 7 9 10 11 5 6 12 14 14 14 13 12 11 11 10 9 8 7 6 5 4 3 3 3 1 1 1 1 0 0 0 1 2 1
7 6 4 1 1 5 9 4 7 7 8 9 8 7 10 10 9 8 10 14 13 12 11 11 9 8 7 6 5 5 4 4 3 2 1 1 1 1 0 0 0 1 1 1
5 8 5 4 3 7 9 5 6 7 7 8 9 7 5 5 4 2 8 11 12 12 10 9 9 8 7 7 6 6 4 4 3 2 2 1 2 2 1 1 2 2 1 2
5 5 6 5 4 6 8 3 4 5 6 6 9 9 9 10 5 7 8 10 10 9 8 8 8 7 8 7 7 7 5 4 4 3 3 2 2 2 2 2 2 1 1 2
3 3 4 5 6 8 9 3 6 5 8 4 8 10 14 12 8 4 8 9 9 9 8 9 9 9 8 8 8 7 6 5 5 3 2 2 2 2 2 1 1 1 1 1
8 6 6 6 4 9 5 7 8 9 3 4 7 10 12 7 4 6 9 10 10 10 9 9 10 8 7 8 9 8 7 5 3 3 2 1 1 1 1 1 1 1 1 1
7 8 7 9 8 5 4 7 5 3 4 5 7 7 9 7 6 6 8 9 10 10 10 9 9 8 6 7 8 9 7 5 4 3 2 2 1 1 1 1 1 1 1 1
4 3 4 5 8 7 7 6 5 5 5 5 6 7 10 8 8 7 8 8 9 9 9 9 9 9 8 7 7 7 6 6 5 4 3 2 2 2 1 1 2 2 2 2
5 6 3 5 8 7 6 5 4 3 3 3 3 6 9 10 8 8 9 9 9 8 8 9 10 10 10 8 7 6 6 7 6 4 3 2 2 2 2 2 3 3 4 5
5 7 7 7 7 5 6 5 3 3 4 5 5 4 5 9 10 8 8 8 8 9 8 9 9 9 8 8 7 6 6 7 6 4 4 3 2 2 2 2 3 5 6 9
Wind_Direction
45 77 112 160 143 140 136 120 98 59 41 79 89 82 58 65 97 100 96 116 145 167 328 77 89 100 99 90 99 103 102 95 94 79 73 58 23 354 356 4 9 12 14 19
53 50 211 140 121 113 115 109 97 73 55 86 88 65 48 55 107 159 161 154 151 128 81 75 81 88 98 101 99 97 107 102 89 93 103 107 94 15 341 353 15 19 17 16
126 229 187 132 115 109 116 153 153 133 94 65 92 32 15 0 25 49 63 116 143 154 153 136 109 104 96 100 117 115 110 92 80 87 85 65 44 26 17 9 3 3 14 20
79 282 124 116 133 133 143 179 148 135 114 58 96 135 296 311 335 314 287 168 184 165 151 147 136 124 121 126 105 98 94 85 76 83 92 91 82 51 353 340 346 358 18 22
297 97 122 142 163 142 140 109 101 101 101 76 46 114 278 286 248 249 239 230 214 181 162 160 156 144 125 112 106 99 91 80 73 78 94 97 88 75 10 11 20 16 11 18
210 244 159 149 85 112 118 89 67 52 69 68 223 154 260 224 214 214 214 210 194 161 138 131 121 114 101 93 96 98 94 77 69 78 81 102 105 89 61 39 29 15 6 7
41 25 42 111 92 61 98 106 77 35 28 253 224 201 249 239 212 194 191 193 184 158 141 135 129 125 119 111 109 106 103 83 69 77 75 87 101 98 90 72 45 28 13 5
114 279 245 133 141 151 157 134 151 170 192 259 277 240 258 262 213 170 166 167 161 157 155 153 151 148 144 135 127 122 114 101 86 83 76 71 83 91 90 90 78 53 14 338
153 208 5 115 111 128 131 142 153 124 118 120 268 281 300 121 139 152 157 158 172 176 167 162 153 152 154 149 150 146 136 118 104 97 88 74 77 86 91 79 65 48 16 2
143 150 180 134 92 47 134 140 107 120 146 211 273 262 236 213 203 190 183 186 188 178 171 165 161 166 165 159 147 137 136 136 127 111 101 94 81 90 96 81 56 34 13 11
130 133 112 132 179 175 127 123 118 120 149 157 224 263 225 204 197 192 195 191 187 183 180 177 173 168 154 138 137 138 139 128 120 117 104 88 75 91 96 80 46 25 14 13
142 120 162 240 247 177 165 170 152 156 198 177 183 263 278 212 197 188 187 186 185 181 175 170 164 153 147 147 148 152 156 152 157 149 126 110 90 96 91 65 22 21 14 5
144 121 95 359 344 165 182 176 160 132 125 159 178 259 322 177 179 183 180 178 176 171 164 159 159 163 167 167 164 166 171 172 166 149 136 120 109 105 119 16 355 11 17 12
124 127 165 194 216 193 198 184 161 143 161 198 219 240 265 213 194 192 185 179 173 174 172 169 173 177 177 172 169 169 178 173 160 147 142 150 177 181 200 281 344 350 357 1
122 174 212 228 227 192 206 198 180 188 193 196 225 223 236 213 201 194 181 171 169 176 179 180 181 181 177 172 171 168 170 163 148 142 148 180 189 142 85 14 337 340 337 329
124 170 187 278 246 211 233 224 200 209 205 217 237 251 243 194 165 172 178 178 184 188 189 185 181 179 182 181 177 167 165 166 152 154 172 173 129 109 101 322 341 343 328 327
146 142 138 267 315 42 265 227 202 206 203 187 212 231 183 173 189 193 190 189 192 192 188 186 185 185 185 183 175 171 173 154 142 146 144 134 140 144 231 293 23 314 299 315
143 134 140 170 81 242 246 246 200 208 228 212 221 216 191 196 196 194 190 190 193 190 187 187 184 182 180 173 168 159 146 143 138 132 131 136 142 162 185 113 282 285 285 283
143 137 129 140 203 273 292 254 182 188 253 218 211 214 177 122 96 239 206 195 196 191 186 182 179 173 167 168 164 146 142 142 138 151 169 181 172 169 162 224 267 270 264 279
71 103 124 139 177 238 253 254 170 129 276 238 191 183 155 134 162 233 199 185 185 176 170 166 159 153 161 169 155 147 153 153 173 192 195 188 171 165 188 228 249 250 245 259
105 99 148 172 211 256 252 224 130 162 242 231 182 175 167 181 200 186 160 174 174 167 164 159 157 165 174 165 154 157 162 185 200 188 174 173 181 182 200 211 237 265 269 291
174 166 183 156 189 251 231 148 180 216 237 190 185 181 182 189 157 152 162 167 165 163 160 160 162 170 168 163 160 166 188 200 177 159 160 185 209 219 199 177 265 301 287 296
196 190 186 189 212 243 222 215 243 217 216 206 190 186 172 168 177 171 169 169 170 168 166 165 164 164 166 172 171 179 196 178 163 160 179 211 219 227 211 196 226 281 280 275
248 173 169 244 267 262 259 253 255 224 229 224 193 175 169 175 177 174 171 171 171 171 169 165 161 166 179 185 187 189 182 172 164 175 196 209 212 236 246 233 217 223 248 260
224 167 191 255 278 297 288 256 254 241 228 195 171 176 177 170 176 178 177 179 178 174 171 169 174 180 187 186 190 187 174 166 169 183 200 213 220 230 245 251 240 237 241 237
199 182 184 229 236 217 261 277 240 220 224 195 170 172 180 177 179 178 180 182 177 175 172 174 180 184 186 184 190 188 180 172 172 187 206 215 221 232 237 257 289 270 259 275
Height
1509 1515 1520 1519 1519 1521 1524 1529 1533 1533 1529 1532 1536 1538 1538 1537 1537 1538 1539 1539 1540 1541 1543 1544 1546 1547 1548 1549 1550 1551 1551 1551 1551 1551 1551 1551 1550 1549 1549 1548 1547 1546 1545 1544
1516 1519 1516 1515 1517 1520 1524 1531 1535 1534 1532 1534 1539 1540 1539 1538 1538 1539 1539 1539 1540 1542 1543 1544 1546 1547 1548 1549 1550 1551 1551 1551 1551 1551 1551 1551 1550 1550 1549 1548 1548 1547 1546 1545
1518 1518 1514 1516 1519 1523 1527 1531 1534 1536 1535 1536 1539 1544 1542 1540 1539 1539 1539 1540 1541 1542 1543 1544 1546 1547 1548 1549 1550 1551 1551 1552 1552 1551 1551 1551 1550 1550 1549 1549 1548 1547 1546 1545
1516 1514 1514 1517 1521 1522 1530 1526 1529 1533 1540 1547 1543 1555 1545 1542 1541 1540 1539 1540 1541 1542 1543 1544 1545 1547 1548 1550 1551 1551 1551 1552 1551 1551 1551 1551 1550 1549 1549 1549 1548 1548 1547 1546
1517 1515 1516 1519 1520 1521 1526 1526 1530 1535 1541 1548 1548 1554 1550 1543 1542 1540 1539 1539 1540 1541 1542 1544 1545 1547 1548 1550 1550 1551 1551 1551 1551 1551 1551 1550 1550 1549 1549 1549 1548 1548 1547 1546
1516 1515 1515 1517 1518 1520 1524 1530 1535 1540 1545 1556 1551 1554 1552 1545 1539 1537 1537 1538 1539 1540 1542 1543 1545 1547 1548 1549 1550 1551 1551 1551 1551 1550 1550 1550 1549 1549 1549 1548 1548 1548 1547 1546
1519 1517 1516 1516 1521 1525 1527 1539 1552 1555 1560 1559 1549 1551 1548 1534 1532 1533 1534 1536 1537 1539 1541 1542 1544 1546 1547 1549 1549 1550 1550 1550 1550 1550 1550 1549 1549 1549 1548 1548 1548 1547 1547 1546
1526 1529 1519 1517 1520 1526 1530 1535 1552 1561 1563 1559 1550 1551 1540 1530 1529 1530 1532 1534 1536 1538 1540 1542 1543 1545 1547 1548 1549 1549 1550 1550 1550 1549 1549 1549 1549 1548 1548 1548 1548 1547 1547 1546
1525 1527 1517 1517 1518 1521 1530 1535 1536 1548 1553 1558 1554 1545 1535 1529 1529 1530 1531 1533 1535 1537 1539 1541 1543 1544 1546 1547 1548 1549 1549 1549 1549 1549 1549 1548 1548 1548 1548 1548 1547 1547 1546 1546
1516 1525 1519 1518 1519 1522 1525 1530 1541 1548 1558 1562 1552 1547 1542 1531 1529 1529 1530 1531 1533 1535 1538 1540 1542 1544 1545 1546 1547 1548 1549 1549 1549 1548 1548 1548 1548 1548 1548 1547 1547 1546 1546 1545
1511 1522 1524 1521 1522 1524 1528 1532 1537 1546 1548 1558 1559 1548 1522 1521 1521 1524 1525 1528 1530 1533 1535 1538 1540 1542 1544 1545 1546 1547 1548 1548 1548 1548 1547 1547 1547 1547 1547 1547 1546 1546 1545 1545
1512 1521 1528 1522 1516 1515 1519 1524 1533 1542 1546 1549 1553 1543 1515 1515 1516 1519 1522 1525 1528 1531 1534 1536 1539 1541 1542 1543 1545 1546 1546 1547 1547 1547 1547 1546 1546 1546 1546 1546 1546 1546 1545 1544
1510 1520 1532 1530 1526 1520 1519 1521 1525 1532 1542 1550 1551 1537 1515 1514 1515 1517 1520 1523 1526 1529 1532 1535 1537 1539 1540 1542 1543 1544 1545 1546 1546 1546 1546 1545 1545 1545 1545 1545 1545 1545 1544 1543
1504 1516 1524 1530 1525 1517 1518 1519 1522 1528 1540 1543 1538 1527 1516 1515 1514 1515 1518 1520 1523 1527 1529 1532 1534 1537 1538 1540 1541 1542 1543 1544 1544 1544 1544 1544 1544 1544 1544 1545 1544 1544 1543 1542
1503 1513 1513 1512 1509 1510 1511 1513 1518 1521 1523 1529 1523 1521 1512 1509 1509 1511 1515 1518 1521 1524 1527 1529 1532 1534 1536 1538 1539 1541 1542 1542 1543 1543 1543 1543 1543 1543 1543 1543 1543 1542 1542 1541
1504 1509 1510 1510 1506 1508 1509 1508 1512 1514 1515 1517 1515 1513 1503 1504 1507 1510 1513 1515 1518 1520 1523 1526 1529 1531 1533 1535 1537 1539 1540 1541 1541 1541 1541 1541 1541 1542 1542 1541 1541 1541 1540 1539
1506 1509 1515 1518 1511 1509 1514 1504 1505 1506 1505 1507 1510 1503 1500 1503 1503 1504 1507 1510 1512 1515 1519 1522 1525 1528 1531 1533 1535 1536 1538 1539 1539 1539 1540 1540 1540 1540 1540 1539 1539 1539 1538 1537
1504 1510 1518 1520 1515 1522 1506 1493 1494 1497 1496 1496 1495 1493 1494 1494 1497 1500 1503 1506 1509 1512 1516 1519 1523 1526 1528 1531 1533 1535 1536 1536 1537 1537 1538 1538 1538 1538 1538 1537 1537 1536 1535 1534
1498 1506 1518 1524 1522 1516 1501 1491 1492 1495 1494 1488 1490 1490 1493 1495 1499 1500 1501 1503 1506 1509 1513 1517 1520 1523 1526 1528 1531 1532 1533 1534 1535 1535 1535 1536 1536 1536 1535 1535 1534 1534 1533 1532
1500 1503 1514 1522 1519 1519 1500 1486 1485 1490 1495 1483 1484 1486 1490 1494 1502 1497 1496 1500 1504 1508 1511 1515 1518 1521 1524 1526 1528 1530 1531 1531 1532 1533 1533 1533 1533 1533 1532 1532 1531 1531 1530 1529
1505 1509 1514 1519 1517 1509 1488 1484 1487 1500 1494 1479 1479 1481 1485 1487 1488 1489 1493 1497 1501 1505 1509 1512 1515 1518 1521 1523 1525 1526 1528 1528 1529 1530 1531 1531 1530 1530 1530 1529 1529 1528 1527 1525
1502 1508 1513 1516 1516 1507 1481 1483 1486 1483 1476 1476 1477 1478 1481 1483 1486 1488 1491 1495 1498 1502 1506 1509 1512 1515 1518 1520 1522 1523 1524 1526 1527 1527 1528 1528 1528 1527 1527 1526 1525 1525 1523 1522
1495 1494 1496 1497 1493 1481 1478 1477 1476 1476 1475 1475 1475 1477 1480 1482 1485 1487 1490 1493 1496 1500 1503 1506 1509 1512 1515 1517 1519 1520 1522 1523 1523 1524 1524 1524 1524 1524 1524 1523 1522 1521 1520 1518
1488 1486 1489 1489 1481 1476 1475 1474 1474 1474 1474 1474 1474 1476 1478 1480 1483 1486 1489 1491 1494 1497 1500 1503 1506 1509 1511 1513 1515 1517 1519 1520 1520 1520 1521 1521 1521 1520 1520 1519 1518 1517 1515 1514
1482 1484 1486 1484 1477 1473 1471 1471 1471 1472 1472 1472 1473 1475 1476 1479 1481 1484 1486 1489 1492 1494 1497 1500 1503 1505 1508 1510 1512 1513 1515 1516 1517 1517 1517 1517 1517 1517 1516 1515 1514 1513 1512 1510
1478 1479 1481 1479 1472 1472 1470 1470 1470 1470 1470 1471 1471 1473 1475 1477 1479 1481 1484 1486 1489 1492 1494 1497 1499 1502 1504 1506 1508 1510 1511 1512 1513 1513 1513 1513 1513 1513 1512 1511 1510 1509 1508 1506